EW6254 Weather Reports


Display with metric or nautical units.
time (UTC)temp
F
wind
direction
speed
MPH
gust
MPH
rain 1hr
in
rain 24hr
in
rain mn
in
humidity
%
barometer
mb
20170622162204 82 180 4.0 12.0 0.00 0.00 0.00 59 1000.7
20170622161206 82 203 4.0 13.0 0.00 0.00 0.00 59 1000.4
20170622160138 81 230 5.0 15.0 0.00 0.00 0.00 60 1000.5
20170622155106 81 222 7.0 15.0 0.00 0.00 0.00 59 1000.6
20170622154047 80 198 6.0 13.0 0.00 0.00 0.00 59 1000.6
20170622153103 80 190 5.0 13.0 0.00 0.00 0.00 59 1000.8
20170622152026 80 199 5.0 13.0 0.00 0.00 0.00 59 1000.8
20170622150957 79 173 4.0 10.0 0.00 0.00 0.00 60 1000.8
20170622150006 78 139 4.0 13.0 0.00 0.00 0.00 61 1000.9
20170622144941 77 255 6.0 13.0 0.00 0.00 0.00 62 1000.8
20170622143926 76 182 5.0 12.0 0.00 0.00 0.00 62 1000.6
20170622142934 76 210 5.0 13.0 0.00 0.00 0.00 61 1000.5
20170622141914 77 191 5.0 14.0 0.00 0.00 0.00 60 1000.5
20170622140908 76 154 5.0 15.0 0.00 0.00 0.00 61 1000.6
20170622135842 76 104 6.0 15.0 0.00 0.00 0.00 59 1000.8
20170622134811 76 167 4.0 9.0 0.00 0.00 0.00 60 1001.1
20170622133809 75 202 4.0 10.0 0.00 0.00 0.00 61 1001.6
20170622132748 75 138 5.0 12.0 0.00 0.00 0.00 61 1001.1
20170622131730 75 245 5.0 12.0 0.00 0.00 0.00 62 1001.2
20170622130736 74 94 4.0 9.0 0.00 0.00 0.00 63 1001.0
20170622125707 74 182 2.0 6.0 0.00 0.00 0.00 64 1001.1
20170622124636 74 161 3.0 7.0 0.00 0.00 0.00 64 1001.1
20170622123629 74 0 4.0 8.0 0.00 0.00 0.00 65 1001.1
20170622122600 73 146 3.0 8.0 0.00 0.00 0.00 65 1001.0
20170622121601 73 134 2.0 9.0 0.00 0.00 0.00 65 1001.1
20170622120557 73 185 1.0 9.0 0.00 0.00 0.00 65 1001.2
20170622115615 73 162 2.0 9.0 0.00 0.00 0.00 65 1001.3
20170622114603 73 135 3.0 9.0 0.00 0.00 0.00 65 1001.3
20170622113603 74 147 2.0 7.0 0.00 0.00 0.00 65 1001.2
20170622112616 74 158 1.0 6.0 0.00 0.00 0.00 64 1001.4
20170622111547 74 0 1.0 5.0 0.00 0.00 0.00 64 1001.4
20170622110552 74 0 1.0 3.0 0.00 0.00 0.00 63 1001.3
20170622105542 75 232 2.0 6.0 0.00 0.00 0.00 62 1001.3
20170622104546 75 199 5.0 11.0 0.00 0.00 0.00 62 1001.4
20170622103529 75 0 4.0 12.0 0.00 0.00 0.00 62 1001.1
20170622102545 75 0 5.0 12.0 0.00 0.00 0.00 61 1001.1
20170622101528 76 0 5.0 12.0 0.00 0.00 0.00 61 1001.1
20170622100501 76 0 5.0 15.0 0.00 0.00 0.00 60 1001.1
20170622095445 76 0 6.0 15.0 0.00 0.00 0.00 59 1001.1
20170622094422 77 0 5.0 13.0 0.00 0.00 0.00 59 1001.1
20170622093405 77 0 6.0 14.0 0.00 0.00 0.00 59 1001.2
20170622092419 77 0 6.0 15.0 0.00 0.00 0.00 59 1001.3
20170622091430 77 0 5.0 15.0 0.00 0.00 0.00 58 1001.2
20170622090447 77 0 6.0 14.0 0.00 0.00 0.00 58 1001.3
20170622085433 77 0 5.0 12.0 0.00 0.00 0.00 58 1001.7
20170622084456 77 217 5.0 11.0 0.00 0.00 0.00 59 1001.6
20170622083455 78 136 4.0 13.0 0.00 0.00 0.00 59 1001.7
20170622082435 78 215 4.0 13.0 0.00 0.00 0.00 59 1001.9
20170622081423 78 150 4.0 14.0 0.00 0.00 0.00 60 1001.9
20170622080434 78 163 4.0 14.0 0.00 0.00 0.00 60 1002.0
20170622075419 78 209 4.0 11.0 0.00 0.00 0.00 60 1002.1
20170622074433 78 0 4.0 12.0 0.00 0.00 0.00 60 1002.1
20170622073419 78 161 4.0 12.0 0.00 0.00 0.00 60 1002.0
20170622072423 79 206 4.0 12.0 0.00 0.00 0.00 60 1002.0
20170622071435 79 198 4.0 11.0 0.00 0.00 0.00 60 1002.1
20170622070422 79 114 4.0 11.0 0.00 0.00 0.00 60 1002.3
20170622065444 80 180 5.0 14.0 0.00 0.00 0.00 59 1002.5
20170622064426 80 157 7.0 14.0 0.00 0.00 0.00 59 1002.6
20170622063429 80 186 5.0 13.0 0.00 0.00 0.00 59 1002.7
20170622062416 80 207 6.0 14.0 0.00 0.00 0.00 59 1002.7
20170622061341 80 205 6.0 18.0 0.00 0.00 0.00 58 1002.7
20170622060317 80 203 7.0 18.0 0.00 0.00 0.00 57 1002.8
20170622055308 81 189 7.0 15.0 0.00 0.00 0.00 57 1003.0
20170622054329 81 231 7.0 16.0 0.00 0.00 0.00 57 1003.1
20170622053338 81 212 6.0 17.0 0.00 0.00 0.00 56 1003.0
20170622052304 81 201 6.0 19.0 0.00 0.00 0.00 55 1003.1
20170622051233 81 196 7.0 19.0 0.00 0.00 0.00 53 1003.2
20170622050156 82 209 7.0 16.0 0.00 0.00 0.00 52 1003.1
20170622045141 82 156 7.0 16.0 0.00 0.00 0.00 51 1002.9
20170622044142 82 203 6.0 20.0 0.00 0.00 0.00 50 1002.9
20170622043132 82 222 7.0 20.0 0.00 0.00 0.00 49 1002.8
20170622042138 83 215 7.0 16.0 0.00 0.00 0.00 48 1002.8
20170622041155 83 207 6.0 16.0 0.00 0.00 0.00 48 1002.6
20170622040121 83 189 6.0 19.0 0.00 0.00 0.00 48 1002.3
20170622035046 83 209 5.0 19.0 0.00 0.00 0.00 48 1002.2
20170622034038 83 169 5.0 17.0 0.00 0.00 0.00 48 1002.0
20170622033036 83 215 5.0 17.0 0.00 0.00 0.00 48 1001.9
20170622032047 83 178 5.0 16.0 0.00 0.00 0.00 47 1001.8
20170622031023 84 207 5.0 16.0 0.00 0.00 0.00 47 1001.6
20170622025948 84 183 5.0 14.0 0.00 0.00 0.00 47 1001.4
20170622025009 84 205 5.0 14.0 0.00 0.00 0.00 47 1001.4
20170622024021 85 64 4.0 13.0 0.00 0.00 0.00 47 1001.3
20170622022954 85 144 4.0 13.0 0.00 0.00 0.00 48 1001.4
20170622021921 85 135 4.0 12.0 0.00 0.00 0.00 48 1001.3
20170622020941 86 212 4.0 18.0 0.00 0.00 0.00 48 1001.2
20170622015946 87 140 5.0 18.0 0.00 0.00 0.00 47 1001.2
20170622014927 87 134 5.0 12.0 0.00 0.00 0.00 47 1001.2
20170622013947 88 146 4.0 15.0 0.00 0.00 0.00 45 1001.2
20170622012914 89 178 7.0 19.0 0.00 0.00 0.00 44 1001.1
20170622011837 89 205 5.0 19.0 0.00 0.00 0.00 45 1001.1
20170622010819 90 173 6.0 20.0 0.00 0.00 0.00 44 1001.1
20170622005818 91 192 9.0 20.0 0.00 0.00 0.00 42 1001.1
20170622004751 91 212 7.0 17.0 0.00 0.00 0.00 43 1001.2
20170622003803 92 218 6.0 19.0 0.00 0.00 0.00 44 1001.1
20170622002807 92 173 7.0 19.0 0.00 0.00 0.00 44 1001.0
20170622001818 93 160 7.0 19.0 0.00 0.00 0.00 43 1001.1
20170622000742 93 221 8.0 19.0 0.00 0.00 0.00 42 1001.1
20170621235737 93 195 10.0 19.0 0.00 0.00 0.00 42 1001.1
20170621234709 94 237 8.0 19.0 0.00 0.00 0.00 42 1001.2
20170621233657 94 224 7.0 19.0 0.00 0.00 0.00 42 1001.2
20170621232624 94 224 8.0 17.0 0.00 0.00 0.00 41 1001.2
20170621231641 94 210 8.0 17.0 0.00 0.00 0.00 40 1001.2
20170621230642 95 171 7.0 20.0 0.00 0.00 0.00 39 1001.2
20170621225636 95 227 9.0 20.0 0.00 0.00 0.00 40 1001.2
20170621224612 95 148 9.0 18.0 0.00 0.00 0.00 39 1001.3
20170621223633 95 219 7.0 21.0 0.00 0.00 0.00 41 1001.3
20170621222559 95 198 10.0 23.0 0.00 0.00 0.00 40 1001.6
20170621221524 95 202 9.0 23.0 0.00 0.00 0.00 39 1001.4
20170621220532 95 178 6.0 20.0 0.00 0.00 0.00 39 1001.4
20170621215506 95 193 8.0 20.0 0.00 0.00 0.00 39 1001.6
20170621214527 95 203 8.0 17.0 0.00 0.00 0.00 39 1001.5
20170621213519 95 200 8.0 19.0 0.00 0.00 0.00 38 1001.6
20170621212536 95 202 8.0 22.0 0.00 0.00 0.00 38 1001.6
20170621211547 95 226 10.0 22.0 0.00 0.00 0.00 39 1001.8
20170621210543 95 198 9.0 20.0 0.00 0.00 0.00 38 1001.9
20170621205546 95 214 8.0 18.0 0.00 0.00 0.00 40 1002.0
20170621204559 95 214 7.0 21.0 0.00 0.00 0.00 41 1002.2
20170621203537 94 175 9.0 21.0 0.00 0.00 0.00 41 1002.4
20170621202517 94 186 7.0 21.0 0.00 0.00 0.00 42 1002.5
20170621201445 94 242 6.0 17.0 0.00 0.00 0.00 44 1002.7
20170621200503 93 236 8.0 18.0 0.00 0.00 0.00 46 1002.5
20170621195519 93 183 8.0 19.0 0.00 0.00 0.00 47 1002.8
20170621194535 93 208 7.0 19.0 0.00 0.00 0.00 48 1002.8
20170621193551 92 197 6.0 15.0 0.00 0.00 0.00 49 1002.8
20170621192536 93 192 6.0 15.0 0.00 0.00 0.00 50 1003.8
20170621191514 92 219 5.0 18.0 0.00 0.00 0.00 51 1003.6
20170621190507 92 195 7.0 18.0 0.00 0.00 0.00 50 1003.7
20170621185502 92 223 5.0 16.0 0.00 0.00 0.00 50 1003.9
20170621184447 92 223 5.0 15.0 0.00 0.00 0.00 51 1004.2
20170621183501 91 192 4.0 9.0 0.00 0.00 0.00 53 1004.4
20170621182441 90 111 4.0 12.0 0.00 0.00 0.00 54 1004.8
20170621181410 88 96 6.0 12.0 0.00 0.00 0.00 56 1004.6
20170621180407 88 51 7.0 12.0 0.00 0.00 0.00 57 1004.8
20170621175347 88 86 6.0 11.0 0.00 0.00 0.00 56 1005.0
20170621174401 87 117 5.0 12.0 0.00 0.00 0.00 55 1005.3
20170621173406 87 149 5.0 13.0 0.00 0.00 0.00 56 1005.7
20170621172342 86 92 5.0 13.0 0.00 0.00 0.00 57 1005.7
20170621171325 85 111 6.0 12.0 0.00 0.00 0.00 58 1005.8
20170621170346 85 111 5.0 12.0 0.00 0.00 0.00 57 1005.8
20170621165330 86 105 4.0 10.0 0.00 0.00 0.00 57 1005.8
20170621164331 85 157 6.0 10.0 0.00 0.00 0.00 58 1006.0
20170621163314 84 138 6.0 12.0 0.00 0.00 0.00 58 1006.1